[[{"header":{"parameterUnit":"m.s-1","parameterCategory":1,"la1":30.2991,"la2":30.254,"lo1":-89.0895,"lo2":-89.0444,"dy":0.0017,"dx":0.0017,"nx":28,"ny":28,"refTime":"2025-01-05T03:00:00:Z","depth":0,"parameterNumber":2,"parameterNumberName":"U-component_of_WINDS"},"data":[0,0,0,0,0,0,0,0,0,0,0,0,0,0,0,0,0,0,0,0,0,0,0,0,0,0,0,0,0,0,0,0,0,0,0,0,0,0,0,0,0,0,0,0,0,0,0,0,0,0,0,0,0,0,0,0,0,0,-4.9428,-4.943,0,-4.9586,-4.9587,-4.9589,-4.9615,-4.9613,-4.9612,-4.9611,-4.9773,-4.9778,-4.9783,0,0,0,0,0,0,0,0,0,0,0,0,0,-4.9152,-4.9157,-4.9428,-4.943,-4.9432,-4.9585,-4.9587,-4.959,-4.9615,-4.9613,-4.9612,-4.961,-4.9771,-4.9777,-4.9784,0,0,0,0,0,0,0,0,0,0,0,0,0,-4.9287,-4.9159,-4.9428,-4.9463,-4.9468,-4.9585,-4.9587,-4.959,-4.9615,-4.9613,-4.9611,-4.9609,-4.9768,-4.9777,-4.9785,-4.9878,0,0,-4.981,-4.9814,0,0,0,0,0,0,0,0,-4.9279,-4.9297,-4.9456,-4.9461,-4.9467,-4.9578,-4.9549,-4.9687,-4.9616,-4.9559,-4.9611,-4.9608,-4.971,-4.9723,-4.9757,-4.9885,-4.9892,-4.9811,-4.9816,-4.982,-4.9822,0,0,0,0,0,0,0,-4.927,-4.929,-4.9491,-4.9458,-4.9465,-4.9472,-4.9489,-4.9576,-4.9644,-4.9564,-4.9566,-4.9585,-4.9712,-4.9749,-4.9761,-4.9895,-4.9811,-4.9818,-4.9824,-4.9827,-5.0107,-5.011,0,0,0,0,0,0,-4.9254,-4.9282,-4.9486,-4.9495,-4.9366,-4.9479,-4.9497,-4.9545,-4.9643,-4.9656,-4.9586,-4.9585,-4.9735,-4.9751,-4.9767,-4.9881,-4.982,-4.9828,-4.9833,-5.0105,-5.0108,-5.0111,0,0,0,0,0,0,-4.9248,-4.9272,-4.9479,-4.939,-4.9417,-4.9486,-4.9538,-4.9549,-4.9585,-4.966,-4.9672,-4.9611,-4.9734,-4.9755,-4.985,-4.9887,-4.9831,-4.9839,-5.0102,-5.0106,-5.0109,-5.011,0,0,0,0,0,0,-4.924,-4.9269,-4.9305,-4.939,-4.9421,-4.9559,-4.9541,-4.9553,-4.9599,-4.96,-4.9686,-4.9699,-4.9734,-4.9837,-4.9858,-4.9897,-4.9846,-5.0099,-5.0104,-5.0108,-5.0107,-5.0114,-5.0119,0,0,0,0,0,-4.923,-4.9299,-4.9306,-4.9331,-4.9467,-4.9561,-4.9579,-4.9618,-4.9602,-4.9639,-4.9687,-4.9696,-4.988,-4.9847,-4.9871,-4.9913,-5.0097,-5.0103,-5.0108,-5.0105,-5.0112,-5.0119,0,0,0,0,0,0,-4.9216,-4.9311,-4.932,-4.9419,-4.9482,-4.9565,-4.9612,-4.9625,-4.9694,-4.9692,-4.9738,-4.9758,-4.985,-4.9892,-4.9853,-5.0008,-4.9987,-4.9998,-4.9977,-4.9985,-4.999,-4.9977,-4.9853,0,0,0,0,0,-4.9225,-4.9293,-4.9373,-4.9452,-4.9483,-4.9542,-4.9585,-4.961,-4.9677,-4.9704,-4.9759,-4.9824,-4.9897,-4.9944,-5.0015,-5.0115,-5.0134,-5.0156,-5.0162,-5.0166,-5.0174,-5.0229,-5.024,-5.0129,-5.0128,-5.0128,0,0,-4.9243,-4.9303,-4.9343,-4.9451,-4.9503,-4.9572,-4.9564,-4.9639,-4.9691,-4.9716,-4.9808,-4.9851,-4.9927,-5.0025,-5.0071,-5.0062,-5.0209,-5.0173,-5.0176,-5.0181,-5.0236,-5.0246,-5.0255,-5.0132,-5.0132,-5.0131,0,0,-4.9311,-4.9364,-4.9436,-4.9488,-4.9566,-4.9606,-4.9623,-4.9705,-4.9734,-4.9828,-4.9848,-4.9912,-5.0036,-5.0089,-5.0132,-5.0223,-5.0233,-5.0245,-5.0274,-5.0328,-5.0337,-5.0344,-5.0375,-5.0386,-5.0253,-5.0253,-5.0253,0,-4.9324,-4.9429,-4.9471,-4.9545,-4.9591,-4.9617,-4.969,-4.9739,-4.9837,-4.9869,-4.9858,-5.0015,-5.0068,-5.0178,-5.02,-5.0235,-5.0256,-5.0234,-5.0332,-5.034,-5.0348,-5.0378,-5.039,-5.0254,-5.0254,-5.0254,-5.0254,0,-4.944,-4.9513,-4.9562,-4.9655,-4.9708,-4.9781,-4.9834,-4.9883,-4.9904,-4.9944,-5.004,-5.0105,-5.0189,-5.0218,-5.024,-5.0332,-5.0324,-5.0322,-5.0302,-5.0359,-5.0388,-5.04,-5.0255,-5.0254,-5.0254,-5.0254,0,0,-4.9501,-4.9618,-4.9635,-4.9677,-4.9767,-4.9824,-4.9899,-4.9982,-5.0022,-5.009,-5.0153,-5.0258,-5.0257,-5.0307,-5.0335,-5.0382,-5.0448,-5.0375,-5.0378,-5.0385,-5.0553,-5.0551,-5.0564,-5.0457,-5.046,-5.0462,-5.0545,0,-4.9579,-4.9711,-4.9752,-4.9863,-4.9931,-4.9958,-5.0023,-5.0085,-5.0126,-5.019,-5.0235,-5.0308,-5.0303,-5.0333,-5.0381,-5.043,-5.0482,-5.0425,-5.0516,-5.0519,-5.0493,-5.0579,-5.0578,-5.0654,-5.0557,-5.0559,-5.0561,0,-4.9685,-4.9754,-4.9872,-4.9953,-4.9983,-5.0041,-5.0119,-5.0181,-5.0252,-5.0279,-5.0334,-5.0359,-5.0439,-5.0416,-5.0526,-5.0486,-5.0527,-5.0557,-5.0561,-5.0568,-5.0541,-5.0587,-5.0679,-5.0689,-5.0579,-5.0578,-5.0576,0,-4.9716,-4.9838,-4.9924,-4.9961,-5.0058,-5.0097,-5.014,-5.0209,-5.0256,-5.0326,-5.0357,-5.0436,-5.0478,-5.0539,-5.0584,-5.0564,-5.069,-5.0671,-5.0713,-5.0712,-5.0736,-5.0734,-5.0834,-5.0766,-5.0766,-5.0766,-5.0766,0,-4.9796,-4.9867,-4.9939,-4.9992,-5.0072,-5.0119,-5.0198,-5.0242,-5.0304,-5.0366,-5.0395,-5.0453,-5.0511,-5.0577,-5.0613,-5.0698,-5.0718,-5.0741,-5.0749,-5.0737,-5.0734,-5.0762,-5.0757,-5.0769,-5.0768,-5.0768,-5.0767,0,-4.9842,-4.9894,-4.9989,-5.0074,-5.0097,-5.0152,-5.0225,-5.0277,-5.032,-5.0398,-5.0419,-5.0486,-5.0565,-5.0617,-5.0719,-5.0743,-5.0835,-5.0844,-5.081,-5.0814,-5.0852,-5.0847,-5.0972,-5.099,-5.0912,-5.0913,-5.0914,0,-4.9889,-4.9944,-5.0034,-5.0077,-5.012,-5.019,-5.0238,-5.0288,-5.0337,-5.0423,-5.0465,-5.0546,-5.0613,-5.0738,-5.0796,-5.0874,-5.0883,-5.0922,-5.0895,-5.088,-5.0881,-5.0876,-5.0882,-5.0925,-5.0925,-5.0926,-5.0926,0,-4.9965,-4.9988,-5.0056,-5.0134,-5.019,-5.0254,-5.0317,-5.0351,-5.0412,-5.0466,-5.0547,-5.0599,-5.0703,-5.0782,-5.0866,-5.091,-5.0928,-5.0935,-5.0948,-5.0935,-5.0912,-5.0923,-5.082,-5.0931,-5.093,-5.093,-5.093,-5.093,-5.0012,-5.0062,-5.0133,-5.0208,-5.0261,-5.032,-5.0373,-5.0423,-5.0491,-5.0578,-5.0604,-5.0688,-5.076,-5.0873,-5.0919,-5.0986,-5.0982,-5.1002,-5.1007,-5.101,-5.1009,-5.0904,-5.1002,-5.1002,-5.1002,-5.1002,-5.1002,0,-5.0088,-5.0136,-5.0204,-5.0292,-5.0351,-5.0364,-5.0435,-5.0484,-5.0557,-5.0622,-5.0688,-5.0781,-5.0859,-5.0924,-5.1004,-5.1045,-5.1056,-5.1065,-5.1061,-5.1071,-5.1009,-5.0989,-5.1055,-5.1055,-5.1055,-5.1055,-5.1055,-5.1055,-5.0134,-5.0219,-5.0251,-5.0362,-5.041,-5.0492,-5.0531,-5.0586,-5.0638,-5.074,-5.0805,-5.0847,-5.0912,-5.0998,-5.107,-5.1087,-5.1115,-5.1122,-5.114,-5.1081,-5.1075,-5.1069,-5.105,-5.1128,-5.1128,-5.1196,-5.1196,-5.1197]},{"header":{"parameterUnit":"m.s-1","parameterCategory":1,"la1":30.2991,"la2":30.254,"lo1":-89.0895,"lo2":-89.0444,"dy":0.0017,"dx":0.0017,"nx":28,"ny":28,"refTime":"2025-01-05T03:00:00:Z","depth":0,"parameterNumber":3,"parameterNumberName":"V-component_of_WINDS"},"data":[0,0,0,0,0,0,0,0,0,0,0,0,0,0,0,0,0,0,0,0,0,0,0,0,0,0,0,0,0,0,0,0,0,0,0,0,0,0,0,0,0,0,0,0,0,0,0,0,0,0,0,0,0,0,0,0,0,0,3.9914,3.9916,0,4.0089,4.0091,4.0093,4.0126,4.0125,4.0124,4.0122,4.0304,4.031,4.0316,0,0,0,0,0,0,0,0,0,0,0,0,0,3.9613,3.9619,3.9914,3.9916,3.9918,4.0089,4.0091,4.0094,4.0127,4.0125,4.0123,4.0122,4.0302,4.0309,4.0316,0,0,0,0,0,0,0,0,0,0,0,0,0,3.9762,3.962,3.9914,3.9955,3.9961,4.0089,4.0092,4.0094,4.0127,4.0125,4.0123,4.0121,4.0299,4.0308,4.0317,4.0416,0,0,4.0345,4.0349,0,0,0,0,0,0,0,0,3.9753,3.9773,3.9947,3.9953,3.9959,4.0084,4.0052,4.0202,4.0128,4.0064,4.0122,4.012,4.0232,4.0247,4.0284,4.0425,4.0433,4.0346,4.0352,4.0356,4.0358,0,0,0,0,0,0,0,3.9743,3.9765,3.9984,3.995,3.9957,3.9967,3.9986,4.0081,4.0158,4.0069,4.0072,4.0092,4.0235,4.0276,4.0289,4.0435,4.0346,4.0354,4.036,4.0363,4.0671,4.0674,0,0,0,0,0,0,3.9725,3.9757,3.9978,3.9989,3.9849,3.9974,3.9995,4.0046,4.0157,4.0172,4.0094,4.0093,4.0261,4.0278,4.0295,4.0422,4.0356,4.0364,4.037,4.0669,4.0672,4.0675,0,0,0,0,0,0,3.9718,3.9744,3.9971,3.9874,3.9903,3.9982,4.0038,4.0051,4.0091,4.0176,4.019,4.0121,4.026,4.0283,4.0387,4.0429,4.0368,4.0377,4.0665,4.067,4.0673,4.0674,0,0,0,0,0,0,3.9709,3.9741,3.9778,3.9874,3.9908,4.0058,4.0041,4.0056,4.0106,4.0107,4.0204,4.0218,4.026,4.0373,4.0396,4.044,4.0384,4.0662,4.0667,4.0672,4.0671,4.0678,4.0683,0,0,0,0,0,3.9698,3.9771,3.978,3.9807,3.9956,4.006,4.008,4.0125,4.0109,4.0149,4.0204,4.0215,4.042,4.0384,4.041,4.0457,4.066,4.0666,4.0672,4.0668,4.0676,4.0683,0,0,0,0,0,0,3.9678,3.9784,3.9795,3.9901,3.9971,4.0065,4.0116,4.0132,4.0209,4.0207,4.0261,4.0283,4.0385,4.0432,4.0389,4.0562,4.0539,4.0551,4.0527,4.0536,4.0542,4.053,4.0392,0,0,0,0,0,3.9686,3.976,3.9849,3.9934,3.9969,4.0036,4.0083,4.0113,4.0188,4.0218,4.0281,4.0355,4.0436,4.0489,4.0568,4.0678,4.0702,4.0724,4.073,4.0735,4.0745,4.0811,4.0823,4.0694,4.0694,4.0694,0,0,3.9702,3.977,3.9813,3.9932,3.999,4.0068,4.0061,4.0143,4.0202,4.0231,4.0334,4.0383,4.0469,4.0578,4.0629,4.062,4.0786,4.0743,4.0746,4.0753,4.0818,4.083,4.0841,4.0698,4.0698,4.0697,0,0,3.9773,3.983,3.9909,3.9968,4.0056,4.0101,4.012,4.0213,4.0247,4.0351,4.0376,4.0448,4.0586,4.0648,4.0697,4.0796,4.0811,4.0821,4.0854,4.0918,4.0928,4.0938,4.0976,4.0989,4.083,4.083,4.083,0,3.9783,3.99,3.9947,4.003,4.0083,4.0113,4.0195,4.025,4.036,4.0397,4.0385,4.0562,4.0622,4.0748,4.0772,4.081,4.0836,4.081,4.0923,4.0933,4.0942,4.0979,4.0993,4.0831,4.083,4.083,4.083,0,3.991,3.9991,4.0045,4.0151,4.021,4.0291,4.0353,4.0407,4.0433,4.048,4.0588,4.0662,4.0759,4.079,4.0815,4.0921,4.0913,4.0911,4.089,4.0954,4.0991,4.1005,4.0832,4.0831,4.0831,4.0831,0,0,3.9971,4.0105,4.0124,4.0174,4.0276,4.0341,4.0425,4.052,4.0567,4.0643,4.0717,4.0836,4.0836,4.0892,4.0925,4.098,4.1059,4.0973,4.0976,4.0988,4.1184,4.1187,4.1202,4.1069,4.1072,4.1074,4.1178,0,4.0056,4.0207,4.0254,4.0381,4.0459,4.0491,4.0565,4.0637,4.0684,4.0759,4.0811,4.0895,4.0888,4.0923,4.0979,4.1037,4.1099,4.103,4.1141,4.1145,4.1121,4.1221,4.1222,4.1317,4.1192,4.1195,4.1196,0,4.0175,4.0254,4.0389,4.0485,4.0519,4.0585,4.0678,4.0748,4.0831,4.0862,4.0927,4.0956,4.1049,4.1022,4.1152,4.1104,4.1153,4.1189,4.1194,4.1207,4.1175,4.1239,4.1348,4.1363,4.1219,4.1217,4.1215,0,4.021,4.035,4.045,4.0492,4.0605,4.0651,4.07,4.0782,4.0837,4.0919,4.0956,4.1047,4.1098,4.1169,4.1223,4.1198,4.1351,4.1327,4.1381,4.138,4.1413,4.141,4.1533,4.144,4.144,4.144,4.1439,0,4.0301,4.0383,4.0468,4.0529,4.0624,4.0678,4.0771,4.0822,4.0895,4.0969,4.1002,4.1071,4.1137,4.1216,4.126,4.1363,4.1385,4.1415,4.1426,4.1413,4.141,4.1447,4.1443,4.1444,4.1443,4.1442,4.1441,0,4.0356,4.0416,4.0527,4.0626,4.0653,4.0719,4.0804,4.0867,4.0916,4.101,4.1035,4.1114,4.1209,4.127,4.139,4.142,4.1535,4.1542,4.1506,4.1512,4.1564,4.1559,4.1716,4.1741,4.1629,4.163,4.1631,0,4.0411,4.0476,4.0582,4.0634,4.0684,4.0767,4.0824,4.0881,4.094,4.1042,4.1094,4.1191,4.1272,4.1423,4.1492,4.1586,4.1598,4.1646,4.1612,4.1599,4.1602,4.1599,4.1607,4.1652,4.1653,4.1654,4.1655,0,4.0504,4.0532,4.0612,4.0705,4.0773,4.0848,4.0924,4.0965,4.1035,4.11,4.1198,4.1261,4.1386,4.1484,4.1584,4.1638,4.166,4.1665,4.1683,4.1672,4.165,4.1666,4.1524,4.1661,4.1661,4.166,4.166,4.1659,4.0564,4.0624,4.0709,4.0799,4.0863,4.0933,4.0998,4.1057,4.1139,4.1245,4.1274,4.1377,4.1464,4.1601,4.1657,4.174,4.1734,4.1759,4.1766,4.1772,4.1775,4.1635,4.1758,4.1758,4.1758,4.1758,4.1758,0,4.0661,4.0718,4.0801,4.0906,4.0978,4.0992,4.1077,4.1137,4.1227,4.1305,4.1385,4.15,4.1596,4.1673,4.1773,4.1825,4.1838,4.1849,4.1847,4.186,4.1773,4.1749,4.1838,4.1838,4.1838,4.1838,4.1837,4.1837,4.072,4.0824,4.0862,4.0999,4.1056,4.1157,4.1206,4.1273,4.1336,4.1462,4.1542,4.1592,4.1671,4.1777,4.1867,4.1887,4.1924,4.1934,4.1957,4.1874,4.1866,4.1857,4.1835,4.1941,4.1941,4.2038,4.2039,4.204]}]]